Probability
0 0 0 0 0 0 0 0 0 0 0 0 0 0 0 0 0 0 0 0 0 0 0 0 0 0 0 0 0 0 0 0 0 0 0 1 6 18 32 33 28 39 55
0 0 0 0 0 0 0 0 0 0 0 0 0 0 0 0 0 0 0 0 0 0 0 0 0 0 0 0 0 0 0 0 0 0 0 0 4 13 27 34 33 36 44
0 0 0 0 0 0 0 0 0 0 0 0 0 0 0 0 0 0 0 0 0 0 0 0 0 0 0 0 0 0 0 0 0 0 0 0 2 7 19 34 40 36 35
0 0 0 0 0 0 0 0 0 0 0 0 0 0 0 0 0 0 0 0 0 0 0 0 0 0 0 0 0 0 0 0 0 0 0 0 1 4 13 30 44 43 36
0 0 0 0 0 0 0 0 0 0 0 0 0 0 0 0 0 0 0 0 0 0 0 0 0 0 0 0 0 0 0 0 0 0 0 0 0 2 9 24 41 48 45
0 0 0 0 0 0 0 0 0 0 0 0 0 0 0 0 0 0 0 0 0 0 0 0 0 0 0 0 0 0 0 0 0 0 0 0 0 1 5 17 35 49 54
0 0 0 0 0 0 0 0 0 0 0 0 0 0 0 0 0 0 0 0 0 0 0 0 0 0 0 0 0 0 0 0 0 0 0 0 0 0 3 11 27 47 60
0 0 0 0 0 0 0 0 0 0 0 0 0 0 0 0 0 0 0 0 0 0 0 0 0 0 0 0 0 0 0 0 0 0 0 0 0 0 1 8 23 45 61
0 0 0 0 0 0 0 0 0 0 0 0 0 0 0 0 0 0 0 0 0 0 0 0 0 0 0 0 0 0 0 0 0 0 0 0 0 0 1 7 20 42 59
0 0 0 0 0 0 0 0 0 0 0 0 0 0 0 0 0 0 0 0 0 0 0 0 0 0 0 0 0 0 0 0 0 0 0 1 2 2 2 6 16 37 53
0 0 0 0 0 0 0 0 0 0 0 0 0 0 0 0 0 0 0 0 0 0 0 0 0 0 0 0 0 0 0 0 0 0 0 2 3 3 3 5 11 28 44
0 0 0 0 0 0 0 0 0 0 0 0 0 0 0 0 0 0 0 0 0 0 0 0 0 0 0 0 0 0 0 0 0 0 0 1 2 2 3 4 7 19 32
0 0 0 0 0 0 0 0 0 0 0 0 0 0 0 0 0 0 0 0 0 0 0 0 0 0 0 0 0 0 0 0 0 0 0 0 0 1 1 2 4 11 19
0 0 0 0 0 0 0 0 0 0 0 0 0 0 0 0 0 0 0 0 0 0 0 0 0 0 0 0 0 0 0 0 0 0 0 0 0 0 0 1 2 5 8
0 0 0 0 0 0 0 0 0 0 0 0 0 0 0 0 0 0 0 0 0 0 0 0 0 0 0 0 0 0 0 0 0 0 0 0 0 0 0 0 1 1 2
0 0 0 0 0 0 0 0 0 0 0 0 0 0 0 0 0 0 0 0 0 0 0 0 0 0 0 0 0 0 0 0 0 0 0 0 0 0 0 0 0 0 0
0 0 0 0 0 0 0 0 0 0 0 0 0 0 0 0 0 0 0 0 0 0 0 0 0 0 0 0 0 0 0 0 0 0 0 0 0 0 0 0 0 0 0
0 0 0 0 0 0 0 0 0 0 0 0 0 0 0 0 0 0 0 0 0 0 0 0 0 0 0 0 0 0 0 0 0 0 0 0 0 0 1 0 0 0 0
0 0 0 0 0 0 0 0 0 0 0 0 0 0 0 0 0 0 0 0 0 0 0 0 0 0 0 0 0 0 0 0 0 0 0 0 0 0 0 0 0 0 0
0 0 0 0 0 0 0 0 0 0 0 0 0 0 0 0 0 0 0 0 0 0 0 0 0 0 0 0 0 0 0 0 0 0 0 0 0 0 0 0 0 0 0
0 0 0 0 0 0 0 0 0 0 0 0 0 0 0 0 0 0 0 0 0 0 0 0 0 0 0 0 0 0 0 0 0 0 0 0 0 0 0 0 0 0 0
0 0 0 0 0 0 0 0 0 0 0 0 0 0 0 0 0 0 0 0 0 0 0 0 0 0 0 0 0 0 0 0 0 0 0 0 0 0 0 0 0 0 0
0 0 0 0 0 0 0 0 0 0 0 0 0 0 0 0 0 0 0 0 0 0 0 0 0 0 0 0 0 0 0 0 0 0 0 0 0 0 0 0 0 0 0
0 0 0 0 0 0 0 0 0 0 0 0 0 0 0 0 0 0 0 0 0 0 0 0 0 0 0 0 0 0 0 0 0 0 0 0 0 0 0 0 0 0 0
0 0 0 0 0 0 0 0 0 0 0 0 0 0 0 0 0 0 0 0 0 0 0 0 0 0 0 0 0 0 0 0 0 0 0 0 0 0 0 0 0 0 0
0 0 0 0 0 0 0 0 0 0 0 0 0 0 0 0 0 0 0 0 0 0 0 0 0 0 0 0 0 0 0 0 0 0 0 0 0 0 0 0 0 0 0
Wind_Speed
4 4 4 5 5 5 5 6 7 8 9 10 10 13 13 14 13 13 11 26 32 33 33 33 32 32 30 29 28 27 26 25 24 24 23 22 21 20 19 20 23 24 24
4 4 5 5 5 5 5 6 8 8 7 7 9 11 12 13 12 14 13 18 29 33 34 34 33 32 31 30 28 27 26 25 25 24 23 23 22 21 20 20 21 24 26
4 4 5 5 5 5 6 6 7 6 8 9 9 10 11 11 13 15 16 14 15 26 32 34 33 32 31 29 28 27 26 25 24 24 23 23 22 22 21 20 20 23 26
4 4 4 5 6 5 5 6 6 5 7 7 8 8 10 10 13 15 15 16 14 15 21 31 33 32 30 29 27 26 25 24 24 24 23 23 22 22 22 21 20 22 25
4 4 4 5 6 5 5 8 6 6 8 8 9 9 8 9 11 16 17 18 17 17 15 23 31 31 29 28 26 25 24 24 24 23 23 22 22 22 22 22 20 21 24
4 4 5 6 6 5 5 6 8 8 7 8 12 12 9 10 11 12 15 15 15 19 18 18 15 17 25 25 24 23 23 23 23 23 23 23 22 22 22 22 21 21 24
4 5 5 5 5 5 7 8 8 9 8 6 8 11 11 10 11 11 10 12 16 19 18 17 11 9 9 18 20 21 21 22 23 23 23 23 23 22 22 23 22 21 23
5 6 5 5 6 6 7 8 7 7 9 7 8 13 13 12 9 10 10 13 15 13 16 18 14 12 9 6 12 20 21 21 22 22 22 23 23 23 23 23 23 22 23
5 5 6 6 6 6 6 8 7 8 10 10 6 7 10 13 15 11 10 12 12 12 13 13 15 12 11 7 7 14 20 21 22 22 22 22 23 24 24 23 23 23 22
5 5 6 6 6 6 7 8 8 7 9 11 9 6 8 10 12 15 11 8 12 13 13 13 13 13 11 8 10 17 20 21 21 21 22 22 23 24 24 23 23 23 22
5 6 6 5 6 6 7 8 8 8 7 9 10 10 11 10 10 10 15 15 12 10 11 12 12 11 12 9 7 13 20 20 20 20 20 21 21 22 23 22 22 21 22
4 6 6 5 6 6 7 7 7 9 9 9 9 9 10 10 11 10 12 14 14 13 12 11 11 11 10 9 12 19 20 19 19 19 20 20 21 21 21 20 20 19 20
4 5 6 6 6 7 7 7 7 9 9 9 8 8 9 9 10 11 12 13 14 13 12 10 9 9 10 8 8 17 17 18 18 19 20 20 20 20 20 19 19 18 18
5 6 6 7 8 7 8 7 7 8 8 8 10 10 8 9 9 10 10 11 12 11 9 10 9 8 8 8 12 18 10 17 19 19 20 20 21 20 20 19 18 17 15
6 6 7 8 7 7 7 7 6 9 8 7 8 9 8 8 8 9 9 9 10 12 12 9 8 9 9 8 13 10 7 15 20 21 22 21 21 20 20 19 17 16 14
6 7 7 7 8 7 7 7 7 8 9 8 7 9 8 8 8 8 9 9 8 10 11 9 10 10 11 12 17 11 10 21 21 22 23 22 22 21 20 19 17 15 13
6 7 7 8 8 7 7 7 8 10 9 9 9 9 10 10 9 8 9 9 8 8 11 11 9 10 12 12 11 9 10 10 11 21 23 23 23 22 21 20 18 16 14
6 7 7 8 8 9 8 8 10 11 10 11 10 10 11 10 11 10 9 10 9 8 9 14 11 10 12 12 11 10 11 11 10 18 23 23 23 22 21 20 18 15 13
7 7 7 8 8 8 9 9 10 11 12 12 11 11 11 10 11 10 11 10 9 9 7 10 11 9 9 9 10 10 11 9 11 14 19 20 21 22 21 20 18 15 13
7 7 8 8 8 9 10 11 12 13 13 12 12 11 10 10 12 11 10 10 10 9 8 8 10 9 8 8 8 9 10 9 10 11 13 14 17 20 20 20 19 15 13
9 8 8 8 8 9 10 13 12 12 11 11 11 10 10 15 18 15 12 11 10 7 8 9 9 9 8 8 8 8 10 11 11 7 6 7 8 7 10 16 17 14 14
8 8 8 8 10 11 21 27 20 10 10 9 9 8 10 12 16 21 24 23 19 12 10 9 8 9 9 8 8 9 9 10 8 5 6 8 7 7 7 8 13 14 14
8 8 7 8 10 14 25 26 26 13 9 8 8 7 8 10 13 9 15 18 16 21 20 13 10 9 10 9 10 11 9 10 10 9 8 8 6 7 7 9 15 15 14
8 7 7 8 10 14 24 25 25 10 7 7 7 7 8 7 10 13 9 8 8 10 14 10 9 10 10 10 10 10 10 11 12 10 9 7 6 6 6 6 13 15 14
7 6 7 8 9 12 21 24 22 6 6 7 6 7 8 7 17 22 11 9 11 10 14 19 20 17 19 17 13 7 6 7 8 6 4 5 4 4 4 4 8 13 14
6 6 7 7 8 9 18 23 22 5 6 6 6 6 12 15 19 20 9 8 12 11 10 11 12 14 11 12 15 7 5 6 6 6 3 4 4 3 2 3 4 6 8
Wind_Direction
336 331 325 323 320 320 326 325 316 315 317 316 315 317 316 313 309 305 305 303 302 299 296 292 289 286 284 281 280 278 277 276 276 276 276 278 280 277 263 244 223 209 202
335 326 321 316 313 319 319 311 310 311 308 307 309 311 309 306 304 305 303 303 300 297 294 291 287 284 281 278 276 274 273 272 272 272 272 273 274 276 270 253 234 215 204
330 325 313 310 309 312 310 306 305 302 306 310 307 304 302 301 301 301 300 297 295 294 291 288 285 281 277 274 272 270 270 270 270 270 270 271 271 272 271 260 242 223 209
325 320 309 306 304 308 306 303 298 306 305 301 299 298 298 297 298 299 298 296 294 289 287 285 283 279 277 273 270 268 267 268 268 268 269 269 269 269 268 263 248 230 214
317 316 304 296 305 306 300 305 314 303 301 301 300 297 297 299 298 298 296 295 293 289 283 280 278 276 274 271 269 268 267 267 266 266 267 270 270 267 266 262 254 236 220
313 312 294 297 304 301 300 301 301 298 296 299 305 306 298 294 295 293 295 299 302 300 292 281 275 274 272 270 268 266 265 265 265 266 267 269 272 270 265 260 256 242 225
305 296 294 295 297 297 297 298 299 303 302 300 305 306 300 289 287 292 294 303 303 303 299 294 287 279 274 275 276 274 270 265 264 263 264 267 268 272 269 261 255 248 231
290 296 293 293 292 294 296 297 301 301 305 310 307 309 308 306 296 302 299 295 297 299 301 299 297 292 285 274 274 276 275 271 268 265 264 265 266 268 271 264 255 250 237
285 286 286 288 290 292 294 297 300 306 308 307 294 297 304 306 310 299 292 292 295 298 296 294 290 287 281 273 267 272 273 271 268 267 265 265 265 264 267 266 259 251 241
294 292 287 290 293 291 291 298 311 304 303 307 305 288 279 288 298 305 305 292 295 297 300 301 303 299 291 281 271 271 270 268 267 267 267 267 265 262 263 263 260 253 245
293 291 289 296 294 291 291 296 300 299 299 298 304 305 301 296 286 290 301 306 305 300 300 301 300 296 290 283 273 269 270 268 267 268 269 270 271 266 263 263 263 258 248
288 291 297 298 294 291 292 294 298 300 299 296 301 302 301 300 301 296 293 297 300 301 300 298 295 292 288 281 275 275 273 271 270 271 273 273 276 275 271 269 269 266 256
290 290 301 293 290 288 293 298 304 300 298 299 303 305 305 300 297 294 292 294 294 296 297 294 293 294 295 293 286 284 279 278 274 271 271 273 274 277 277 274 276 273 266
281 286 292 290 289 293 304 302 300 298 298 298 304 304 305 306 306 301 296 297 299 298 298 296 300 298 307 307 301 300 291 287 281 276 273 272 272 273 275 274 277 275 277
285 293 294 290 291 294 296 299 294 296 295 294 297 300 303 304 305 307 304 300 300 307 309 307 310 308 309 304 302 300 291 286 282 276 272 270 269 268 271 271 272 272 272
286 291 290 292 293 293 294 296 294 293 294 294 295 299 302 304 305 305 307 307 302 299 301 305 307 306 308 308 306 308 301 296 286 278 272 268 266 265 267 267 266 266 263
287 289 292 294 295 294 293 292 291 295 292 293 295 298 299 302 302 306 305 305 305 303 301 305 304 305 305 304 302 299 295 287 282 278 272 266 262 258 259 258 259 259 257
285 286 290 294 296 298 291 287 290 294 289 289 289 291 293 300 300 300 300 303 301 300 303 308 309 308 305 304 302 304 302 294 284 277 272 266 260 254 253 249 250 251 249
286 288 291 292 291 291 288 282 279 280 280 278 278 282 284 290 293 294 297 299 299 304 300 300 305 306 306 309 314 311 307 298 290 281 274 267 260 251 247 245 244 244 239
287 285 283 284 287 289 286 280 275 272 272 269 269 272 276 281 283 287 297 302 305 304 301 300 302 305 307 313 320 321 317 312 302 291 278 273 264 251 243 239 236 234 230
286 281 281 284 287 289 285 280 274 274 271 268 268 268 274 290 302 309 314 311 310 307 308 303 302 305 308 317 318 317 312 312 301 278 284 278 270 249 231 233 230 225 221
280 281 280 283 289 293 298 303 310 303 293 283 279 273 278 292 302 317 318 319 325 320 311 304 302 302 302 303 304 305 308 311 306 318 327 294 275 253 227 216 213 210 209
284 282 281 282 286 291 302 309 318 327 312 296 287 284 294 301 314 298 308 322 322 320 317 310 302 294 291 290 291 293 292 293 284 291 303 283 261 251 233 218 204 203 202
278 280 282 283 286 295 310 316 326 332 310 298 290 285 287 291 301 310 317 316 305 304 307 308 292 287 286 281 272 276 284 289 283 268 246 259 258 248 237 210 199 197 197
283 284 285 287 290 301 314 321 335 323 314 310 304 306 313 301 311 327 334 320 315 309 320 323 321 317 315 313 308 296 291 294 293 286 259 250 260 251 229 202 195 193 193
286 292 296 296 298 301 317 328 338 327 318 321 320 322 327 324 327 335 335 322 318 323 330 324 320 316 311 305 309 300 282 279 282 286 303 314 286 273 220 194 183 184 187